Starlink 2143

operational
NORAD ID: 47733 Int'l Des: 2021-017 Owner: SPXS Country: US Constellation: starlink
LEOCIRCULARSTARLINK_TYPE

Über Starlink 2143

Beschreibung wird geladen...

Live-Position

3D-Globus wird geladen...

Nächste Überflüge

Höhenverlauf

Altitude vs Time

uPlot chart will show altitude changes over time

Zweizeiliger Elementsatz

1 47733U 21017M 25304.74359333 .00001810 00000-0 14036-3 0 9993
2 47733 53.0548 80.4761 0001189 95.6027 264.5097 15.06405814258209
Epoch: 31. Okt. 2025 • Age: 38 hours

Aktueller Status

Höhe 562.7 km
Geschwindigkeit 7.58 km/s
Subsatellitenpunkt -44.12°S, 145.12°E
Startdatum 4. März 2021
Alter 4.6 years
Typ internet

Technische Details

Klassifizierung Payload
Masse 260.00 kg
Trockenmasse 248.00 kg
Gesamtmasse 260.00 kg
Länge 0.20 m
Durchmesser 2.80 m
Spannweite 9.00 m
Form Box + pan
Hersteller SPXS
Bus-Typ Starlink
Phasenstatus In Orbit
Besitzer/Staat SPXS/US

Große Konstellationen

Loading constellations...